Voltar ao catálogo

SL-3 DEB

AtivoSSO
NORAD 25655·DEBRIS·🇷🇺 Russia

Lançado Apr 20, 1988 de Baikonur Cosmodrome

Loading…

Próximas Passagens (próximas 24 horas)

TLE

AtualizadoSource: Space-Track

Época: Sep 14, 2026, 10:20 UTC

1 25655U 88032D   26257.43121702  .00003934  00000-0  16870-3 0  9990
2 25655  97.5261 240.8224 0028647 285.3554  74.4518 15.22986217 79925

Acompanhe SL-3 DEB em tempo real com AllMySat

Download on the App Store